Location: Cahas Mountain Overlook
(37.0833°N, 80.1000°W)
Time: 08:43:10
(UTC-05:00)

S-56A Canister/Altair - Pass Details

Date: 06 December 2023
Orbit: 640 x 2488 km, 38.9° (Epoch: 25 February)

Event Time Altitude Azimuth Distance (km) Brightness Sun altitude
Rises 17:59:25 0° 275° (W) 3,237 12.1 -11.1°
Reaches altitude 10° 18:02:11 10° 258° (WSW) 2,489 11.7 -11.6°
Maximum altitude 18:06:26 21° 211° (SSW) 2,137 10.5 -12.4°
Drops below altitude 10° 18:11:51 10° 166° (SSE) 3,265 10.8 -13.4°
Sets 18:16:11 0° 152° (SSE) 4,609 11.4 -14.3°
